Terminal Aerodrome Forecast
Issued by NWS Greer, SC

Home | Current Version | Previous Version | Text Only | Print | Product List | Glossary On
Versions: 1 2 3 4 5 6 7 8 9 10 11 12 13 14 15 16 17 18 19 20 21 22 23 24 25 26 27 28
000
FTUS42 KGSP 300520
TAFAVL
TAF
KAVL 300520Z 3006/3106 16003KT P6SM OVC120
     FM301800 17007KT P6SM OVC060
     FM310000 17003KT P6SM VCSH OVC045
     FM310300 00000KT P6SM OVC030=

USA.gov is the U.S. government's official web portal to all federal, state and local government web resources and services.